Theta_e
306 306 307 307 306 306 306 306 306 305 306 306 306 306 306 306 307 307 307 307 307 307 308 308 308 308 308 309 310 312 313 313 314 312 312 314 315 315 316 315 313 313 313 313 312 313 312 313 313 312 317 318 314 315 314 315 322 330 334 326 314 315 317 317 323 321 317 317 318 318 314 314 317 315 311 309 313 316 315 315 314 311 310 308 305 305 306 309
307 307 307 307 306 306 306 306 307 306 306 306 306 307 306 307 307 307 307 307 307 307 308 308 308 308 309 311 312 314 314 314 312 311 314 316 315 316 316 314 313 313 312 312 312 313 313 314 312 314 321 318 313 316 318 315 321 334 330 317 319 324 319 317 324 321 317 315 317 318 314 313 314 313 311 312 317 317 314 315 315 316 314 307 305 306 306 307
307 307 307 307 307 306 306 306 307 307 307 307 307 307 307 307 307 307 307 307 307 307 308 308 309 309 311 313 314 316 314 313 312 313 317 318 315 316 316 314 313 312 312 312 313 312 313 315 311 315 323 318 314 320 323 318 318 326 323 320 327 329 321 318 322 320 317 314 317 318 312 313 314 312 311 312 315 315 314 315 314 316 314 307 303 304 305 305
307 307 307 307 307 307 306 306 307 308 308 308 308 308 308 308 308 308 308 309 309 309 309 309 310 311 313 314 316 316 314 314 314 314 317 316 315 316 315 314 313 312 313 312 313 313 314 314 312 317 322 318 319 321 319 317 317 317 320 325 325 321 319 319 321 321 318 314 315 317 313 314 313 311 312 312 314 314 314 313 312 311 311 308 304 302 303 302
308 307 307 307 308 307 306 306 308 308 308 309 308 309 309 308 308 308 309 310 311 311 311 312 313 314 315 315 316 316 314 317 315 313 315 316 315 315 314 313 313 313 313 313 313 313 313 312 314 322 321 318 322 320 316 316 316 316 318 323 324 318 317 319 321 321 318 313 313 317 315 313 311 311 314 313 313 313 309 308 309 307 306 306 304 302 302 301
308 307 307 307 307 308 307 307 308 308 309 308 308 309 309 308 308 309 310 312 313 313 313 314 314 315 315 315 317 316 314 314 312 312 315 315 315 315 314 313 313 313 313 314 313 312 314 314 317 325 323 318 319 315 314 315 314 317 318 319 322 319 317 318 319 318 315 314 315 316 312 310 312 312 312 312 312 308 303 303 305 303 302 302 301 301 301 300
309 308 307 307 307 308 308 308 308 308 308 308 308 309 309 309 310 311 311 313 314 314 314 315 315 315 315 314 316 318 318 316 313 315 316 315 314 314 313 313 313 313 313 313 313 314 317 317 318 322 322 317 315 314 313 313 315 319 320 320 319 316 318 320 318 316 315 314 315 313 309 310 314 312 310 309 306 302 301 302 302 301 301 301 300 300 300 300
309 308 307 307 308 308 308 308 308 308 308 308 309 310 310 311 313 313 313 314 314 314 314 314 314 313 313 314 317 322 322 320 317 317 318 316 314 313 313 313 313 312 313 313 313 315 316 316 316 316 318 315 313 315 312 311 317 320 320 322 318 316 321 320 316 316 315 313 310 309 311 312 312 311 310 308 303 300 302 302 301 300 300 300 299 299 299 299
309 309 308 308 309 309 309 309 309 309 309 309 310 311 311 312 314 314 314 315 314 314 314 314 314 312 312 313 316 322 321 318 318 318 319 318 315 314 315 314 313 313 312 313 313 313 313 316 316 314 315 314 312 314 313 313 317 319 320 320 317 315 317 315 315 316 315 313 309 310 314 312 308 309 309 306 301 301 302 301 300 300 299 299 298 298 299 298
310 311 310 311 311 310 310 309 310 309 309 310 311 311 312 313 315 315 315 316 315 315 314 314 314 313 313 313 316 320 318 319 321 319 319 319 318 317 315 314 313 313 312 312 312 312 312 315 313 310 314 315 311 311 313 313 314 316 318 318 316 313 313 314 314 315 313 312 310 311 314 311 307 310 311 305 301 303 305 302 300 299 299 298 298 298 298 298
312 313 313 313 312 312 312 311 310 310 310 310 311 312 313 314 315 316 316 316 316 316 316 315 313 313 313 313 318 320 317 320 322 320 320 318 318 316 314 313 313 313 312 311 311 311 312 312 308 308 313 312 312 312 312 311 311 313 314 315 317 315 314 314 313 311 311 311 311 310 313 312 309 311 309 304 301 304 308 305 299 300 299 298 298 298 298 298
312 314 315 314 313 313 313 313 311 310 310 310 312 314 314 315 316 317 317 317 317 317 316 315 313 313 312 313 317 317 315 318 320 320 319 317 316 315 314 314 313 312 312 312 312 312 312 311 310 313 314 312 314 314 312 310 310 312 312 314 318 319 317 314 311 310 310 312 311 311 314 316 312 310 305 302 303 305 308 306 301 300 298 298 298 297 297 297
312 314 315 315 315 314 314 313 312 310 311 312 313 314 315 316 316 317 317 317 317 317 316 314 313 312 312 315 315 313 313 316 319 319 317 316 315 315 314 313 313 313 313 313 313 312 312 311 312 314 313 315 317 312 311 311 311 313 312 314 316 319 321 313 309 311 311 311 310 311 318 321 313 306 304 302 303 310 312 305 300 300 298 298 297 297 297 296
313 313 314 315 316 315 314 314 312 311 311 313 314 315 317 317 318 318 317 317 316 316 315 313 313 311 311 316 314 311 313 313 316 318 316 315 314 314 315 313 314 314 314 314 313 313 313 311 311 312 311 314 314 309 315 320 318 315 312 318 319 316 324 320 311 314 313 310 309 312 318 321 312 305 304 301 302 312 312 302 299 299 298 297 297 296 296 296
312 313 315 317 317 315 315 314 312 311 312 315 316 317 317 318 319 318 317 316 315 315 313 312 312 311 314 316 312 312 314 313 316 317 315 314 314 314 314 314 314 314 313 313 313 312 311 311 313 315 312 310 312 314 322 325 325 321 314 324 325 316 325 324 312 313 314 310 310 313 318 320 312 304 304 301 302 311 309 301 299 299 298 297 296 296 295 295
312 313 315 317 317 315 314 313 312 311 313 315 316 318 319 319 318 317 315 314 313 313 312 312 312 312 317 316 312 313 314 314 317 317 316 314 315 315 313 313 312 312 312 311 311 311 311 313 312 312 312 311 316 325 328 325 327 324 317 324 328 318 320 319 312 313 313 310 311 313 317 319 311 304 303 302 301 307 307 301 299 298 297 296 296 295 295 295
313 313 314 316 316 315 314 313 312 312 314 316 317 319 319 318 318 315 314 313 314 315 313 313 312 312 315 313 313 315 313 313 315 317 317 315 315 315 312 312 310 310 312 310 311 311 311 313 311 311 314 314 318 326 328 325 327 326 317 318 323 318 316 318 316 314 312 313 313 313 314 316 313 306 304 302 300 306 306 301 299 298 297 296 296 295 294 294
313 313 314 316 316 315 316 315 312 312 316 316 317 319 319 318 317 315 315 316 315 314 313 313 311 315 317 314 313 314 313 312 314 316 317 316 315 314 313 311 308 309 313 313 312 312 312 314 316 318 317 313 315 321 324 324 329 331 322 319 322 317 314 317 317 314 313 315 316 315 315 316 314 310 305 301 300 304 303 299 298 297 296 296 295 295 294 293
314 314 314 315 317 317 317 316 313 312 316 317 317 318 316 315 315 315 315 316 317 316 317 316 314 320 320 315 314 312 312 313 314 315 314 315 313 312 312 310 311 314 315 315 313 313 317 318 318 319 317 315 315 318 320 322 324 327 326 325 325 320 317 318 317 314 312 313 316 316 315 316 314 313 307 301 300 301 301 299 299 297 296 296 295 295 294 293
315 316 316 316 318 318 318 317 314 314 317 317 317 316 317 318 317 318 315 315 319 317 319 320 317 320 318 314 314 312 312 312 312 313 313 312 311 312 311 308 314 316 315 320 316 312 316 318 318 319 318 317 315 314 317 320 319 320 321 322 322 320 318 317 316 314 311 312 317 314 314 315 314 314 306 301 303 302 301 301 299 297 296 296 295 295 294 293
315 317 317 317 319 319 319 318 315 315 318 317 317 317 321 323 319 320 321 320 317 313 317 319 314 316 314 312 312 312 314 314 311 312 312 311 310 312 312 311 315 315 316 321 317 310 313 318 319 317 317 316 314 313 313 315 316 315 316 317 318 318 317 315 313 314 312 313 316 313 313 315 315 312 304 302 306 304 301 301 299 297 296 295 295 294 294 294
316 317 317 317 319 319 318 318 315 316 318 317 317 316 317 319 316 316 319 323 320 313 314 315 312 315 313 310 311 312 315 318 314 312 311 310 310 312 314 315 318 317 315 316 315 314 315 318 317 314 315 315 313 312 311 312 313 313 314 314 316 315 316 317 313 312 312 312 317 315 313 315 314 306 301 301 303 299 297 299 298 297 296 295 295 294 293 293
318 318 317 317 318 318 318 317 315 316 318 317 317 316 316 317 316 315 317 324 326 319 316 317 317 318 316 313 312 312 316 320 318 315 312 310 311 313 314 315 318 318 315 315 318 319 320 321 317 313 314 315 314 314 312 312 312 313 314 313 315 315 317 321 316 313 312 310 314 315 312 314 311 304 302 299 299 298 296 297 296 296 296 294 294 293 293 293
319 319 319 318 317 317 318 316 315 317 318 317 317 318 318 317 315 315 318 323 326 322 319 317 317 321 321 315 313 314 316 319 320 316 311 311 312 313 314 315 317 318 315 315 318 319 321 320 313 311 314 315 315 314 313 314 315 316 315 313 315 315 316 320 316 314 315 312 311 312 315 320 315 310 308 301 298 299 297 297 297 295 295 294 294 293 292 292
320 320 319 319 317 317 317 316 316 317 318 318 318 317 318 318 314 314 319 326 328 325 318 314 315 320 319 314 313 315 316 318 319 316 310 310 313 313 313 314 316 318 316 314 315 317 320 316 312 315 315 313 315 316 316 317 317 319 319 315 314 315 317 317 315 315 318 319 313 310 320 330 323 317 310 302 301 300 299 299 298 296 295 295 295 294 293 292
320 319 319 320 318 317 316 316 316 317 319 318 317 317 319 318 315 313 320 330 330 325 320 317 319 320 317 314 313 315 319 319 313 311 310 310 311 313 314 313 314 318 317 315 315 318 317 312 313 319 318 315 315 317 317 316 317 321 321 317 313 313 315 317 316 318 322 322 313 309 318 328 327 322 311 302 303 301 300 300 298 297 296 295 295 294 294 293
320 319 319 320 319 318 316 316 317 318 318 318 316 317 320 318 315 313 320 330 329 324 323 319 317 318 316 312 312 319 326 319 311 308 309 311 310 311 316 316 314 316 315 316 321 320 316 313 313 316 319 318 316 318 317 313 320 324 318 317 316 314 316 319 318 319 322 320 315 314 316 320 323 320 309 302 305 303 301 301 299 297 296 295 295 294 293 293
320 318 319 319 319 318 316 316 318 318 317 318 317 318 320 317 315 315 324 332 328 321 321 318 313 313 311 308 312 319 317 314 317 313 306 308 309 311 318 319 318 317 314 319 325 319 314 317 317 315 317 317 316 320 317 313 321 322 312 313 316 315 317 319 318 318 316 314 320 321 315 316 324 320 308 303 306 307 305 303 300 298 297 295 295 294 293 293
320 318 319 319 318 318 316 317 318 318 317 318 319 320 318 315 315 320 327 330 326 319 317 316 311 310 311 310 313 314 310 311 318 313 306 307 309 310 316 317 318 317 312 317 325 319 312 313 315 316 318 318 318 316 312 314 319 314 308 311 314 313 316 316 317 318 314 315 324 324 316 318 325 325 314 308 311 312 308 304 301 299 297 296 295 294 293 293
320 319 318 317 317 316 315 317 317 318 319 318 319 317 315 317 320 326 328 328 327 320 314 313 311 312 314 316 315 313 311 311 312 310 309 310 310 310 310 310 314 317 314 315 320 317 310 307 310 315 317 317 315 310 307 313 314 309 312 317 316 316 318 318 319 317 315 320 323 318 316 316 320 327 322 314 316 315 308 305 301 299 298 296 295 294 293 293
319 318 317 317 317 315 315 316 317 319 319 317 316 314 316 323 325 329 328 326 325 320 314 314 312 313 317 320 320 314 311 311 309 311 313 310 311 313 312 312 315 320 319 317 317 314 310 309 311 313 312 312 313 310 307 307 307 311 320 321 318 320 319 319 321 318 319 327 321 312 312 314 318 328 323 315 313 309 306 306 302 299 298 296 295 294 293 293
319 318 317 316 316 315 315 316 317 319 318 315 314 315 320 326 326 329 327 323 326 322 318 317 313 314 317 318 318 313 313 313 310 313 315 313 313 313 315 318 320 325 324 319 318 316 314 315 314 310 308 311 317 315 310 308 307 313 321 321 321 325 322 322 323 319 321 323 314 310 313 314 317 322 318 316 313 305 303 304 301 299 298 296 295 294 294 293
319 319 317 316 316 314 315 317 317 319 318 313 315 318 323 326 327 327 326 326 327 319 317 318 314 315 317 317 316 312 313 314 311 313 314 313 315 313 314 316 317 326 327 318 317 318 318 317 312 310 311 312 317 317 315 314 312 313 318 321 324 327 329 332 326 319 319 317 310 309 313 314 318 318 314 313 308 301 300 301 300 299 297 296 295 293 294 293
319 319 317 316 316 314 315 317 318 319 316 314 318 322 324 327 327 326 326 327 324 318 316 316 313 314 316 317 316 313 316 315 311 313 313 312 315 315 316 313 311 321 324 317 317 319 321 322 315 314 315 313 314 315 318 318 313 313 317 318 322 327 332 333 329 326 325 319 312 310 313 321 323 315 307 304 300 297 298 298 298 299 297 296 294 293 294 293
319 319 317 316 315 315 315 317 319 319 315 316 320 323 325 327 326 328 328 325 323 320 316 313 313 316 316 315 314 313 317 316 311 313 314 314 316 317 318 315 311 318 322 319 319 316 318 323 318 312 311 311 312 314 315 315 314 313 313 315 319 323 326 322 317 320 321 319 315 313 316 322 317 307 299 299 298 296 297 297 297 298 296 295 294 293 293 293
319 318 317 316 315 315 314 316 319 318 315 318 322 323 325 325 325 329 327 323 322 318 313 314 316 317 317 315 313 312 313 315 313 313 313 313 315 315 316 317 313 314 316 320 321 317 318 321 315 310 309 309 311 312 312 315 317 313 312 318 318 315 321 322 312 308 311 318 318 315 318 317 312 308 302 299 301 298 296 297 297 297 295 294 294 293 293 292
318 317 317 316 315 315 314 315 318 317 316 320 323 324 324 324 325 327 325 320 317 313 314 318 318 318 318 316 315 314 314 315 313 314 315 314 314 315 315 317 314 311 313 318 320 320 323 323 314 310 313 309 305 310 312 311 313 315 317 320 314 311 319 323 318 315 315 320 319 315 317 317 315 316 309 302 306 304 298 296 296 295 295 294 294 293 293 292
317 317 317 317 316 316 314 315 317 315 316 321 324 324 325 324 323 322 322 318 314 313 318 322 320 318 318 317 318 314 314 317 313 313 316 314 316 316 314 316 314 311 312 313 316 318 320 323 316 310 312 310 306 312 314 310 309 314 316 314 314 318 321 318 319 322 321 322 323 317 313 315 316 318 315 310 312 310 301 296 295 295 295 294 294 294 293 292
317 317 318 317 317 316 315 316 316 314 317 321 322 323 325 325 322 320 320 318 317 317 319 322 322 320 318 317 319 315 314 316 313 313 316 315 316 315 312 316 315 311 311 311 315 317 316 320 320 311 310 312 310 313 317 314 309 311 311 309 313 318 320 319 319 320 321 322 324 319 315 318 317 317 319 317 313 309 303 298 296 296 295 295 295 294 293 292
316 319 318 316 317 317 316 316 316 316 319 320 319 320 321 322 322 321 320 320 321 319 320 325 325 323 321 318 318 317 316 316 312 314 317 315 315 314 312 316 315 311 312 310 313 318 314 316 321 313 309 312 315 315 316 315 312 313 313 312 314 314 315 319 317 315 320 323 325 322 319 320 317 314 318 317 310 304 303 300 298 296 295 295 295 294 294 292
316 320 318 315 317 317 316 317 318 319 320 320 319 317 318 320 322 321 319 319 321 319 319 324 324 324 324 319 318 319 318 317 313 315 318 316 317 320 316 316 315 311 312 311 312 318 317 318 322 318 313 316 319 314 310 311 312 314 314 314 315 315 315 318 317 314 316 319 322 322 320 319 316 310 310 311 307 303 300 300 298 297 296 296 295 295 294 292
316 320 315 312 316 317 317 319 320 320 320 320 319 318 318 320 320 321 320 319 321 321 319 321 322 324 324 321 321 320 318 318 315 316 320 318 319 322 318 316 314 311 313 314 313 317 319 320 322 321 318 317 315 308 305 308 310 311 313 315 316 315 316 319 319 317 316 315 316 317 319 319 311 305 306 306 304 302 299 298 298 297 296 295 295 295 293 292
318 317 311 310 314 316 318 320 320 320 319 319 320 319 319 320 319 320 321 319 320 321 320 321 321 322 322 321 321 320 319 319 317 317 322 322 320 318 315 315 315 314 316 316 314 314 316 319 320 320 319 314 311 309 307 307 309 312 314 315 315 315 317 317 317 318 318 317 315 315 319 318 309 304 305 302 300 301 298 297 298 297 297 296 295 295 293 292
314 312 310 310 312 315 319 321 320 320 319 319 320 319 319 319 319 320 321 320 320 321 322 322 320 320 321 320 320 320 320 320 319 318 322 324 318 311 310 312 313 316 317 317 317 316 316 320 321 321 322 318 316 316 313 310 312 316 316 315 315 316 316 315 314 316 317 317 317 317 319 318 311 305 304 302 301 302 299 296 297 297 297 297 295 295 294 293
312 312 310 310 310 312 316 318 319 319 318 318 319 319 319 319 318 319 319 320 320 321 323 322 321 322 321 318 319 321 320 322 322 319 319 320 315 309 309 310 311 316 318 319 320 318 318 321 320 320 323 322 322 321 318 317 316 315 315 314 314 315 314 315 316 316 316 315 316 317 317 317 312 307 307 305 304 306 302 297 296 297 297 297 296 295 294 293
313 314 311 310 309 311 312 313 316 318 317 317 318 318 318 319 318 318 318 320 320 319 321 321 319 321 320 319 320 321 320 320 321 320 319 318 315 310 308 308 310 315 316 317 319 318 320 320 318 320 321 321 323 321 317 319 319 318 317 316 316 314 314 316 318 317 317 317 316 316 316 318 315 311 310 308 307 310 307 300 297 297 297 296 296 295 295 294
313 313 311 311 311 312 312 312 314 316 316 316 316 316 318 319 318 317 317 318 319 318 318 319 318 320 320 319 320 320 320 319 318 319 319 316 313 308 305 306 309 312 312 313 316 319 321 320 318 320 321 320 322 320 317 318 318 318 319 318 317 315 313 315 317 317 318 318 318 318 315 316 317 313 311 311 309 310 308 303 300 298 297 296 295 296 296 295
309 311 309 310 311 311 311 311 313 313 313 313 313 312 316 319 319 319 318 316 316 317 318 318 318 319 319 319 319 318 318 318 318 317 316 314 312 309 308 308 307 308 310 311 312 317 321 320 317 318 319 317 316 315 316 317 316 316 318 318 317 316 314 314 315 315 316 317 318 317 315 315 316 314 313 311 309 309 309 304 301 298 297 296 296 296 296 296
306 307 306 307 310 309 309 310 311 310 309 309 310 310 313 317 317 317 317 315 314 315 317 316 316 317 318 317 317 316 316 318 318 316 315 313 312 312 312 312 308 306 309 311 311 314 318 319 316 316 318 317 313 312 314 315 314 314 314 315 315 314 313 314 314 313 313 315 314 312 312 314 313 313 314 311 307 306 306 302 299 299 299 298 297 297 297 296
306 307 305 306 307 306 308 308 308 309 307 308 310 310 309 312 314 314 314 314 313 313 314 314 312 314 315 313 313 314 315 316 316 315 314 313 312 313 313 313 310 306 308 310 311 311 314 316 313 313 317 316 310 309 310 311 312 312 313 313 311 311 312 311 311 311 311 312 311 309 310 311 310 311 312 311 307 304 304 303 302 302 301 299 298 297 297 296
300 300 302 307 307 305 307 307 306 308 308 307 310 310 308 310 310 310 311 311 312 312 312 313 312 311 311 310 311 312 313 314 314 314 314 314 314 314 314 313 310 308 308 309 310 311 312 312 310 311 317 315 308 307 308 307 307 309 311 311 309 310 311 309 308 309 310 311 310 310 311 311 310 308 308 308 307 306 306 305 304 303 301 300 300 299 297 297
297 298 301 308 308 305 306 306 306 308 309 309 309 309 309 309 308 309 311 311 311 312 311 313 313 311 311 311 311 311 313 314 313 312 311 312 313 313 313 313 311 310 310 308 309 310 310 311 311 311 315 314 306 304 306 305 308 311 311 310 310 309 309 307 307 307 308 309 311 311 311 311 309 306 304 306 306 305 304 304 303 304 302 300 300 299 298 297
Wind_Speed
2 2 2 2 2 2 2 3 3 3 3 3 3 3 3 3 2 2 3 2 3 4 4 5 5 6 7 8 9 11 13 13 13 10 5 2 2 5 3 1 2 2 2 1 2 2 2 5 5 6 5 3 4 2 3 3 2 4 3 3 1 2 2 4 6 6 2 1 4 3 3 3 2 4 2 1 2 3 3 4 4 5 3 3 10 16 16 13
3 2 3 2 2 3 3 3 4 4 4 4 4 4 3 3 2 3 3 3 4 4 4 5 5 6 7 8 9 11 13 14 11 6 3 1 5 7 4 2 2 3 3 2 2 2 3 2 3 6 6 3 3 2 2 2 3 3 3 2 1 5 3 4 6 5 2 1 4 4 2 2 1 2 3 3 5 6 6 6 4 6 4 7 16 19 18 18
4 3 3 3 4 4 5 4 4 4 4 4 4 4 3 2 3 3 3 4 4 5 5 5 5 6 7 8 9 11 13 12 7 3 3 3 7 7 4 2 3 4 3 3 3 3 4 4 3 5 4 3 2 2 3 3 2 1 3 2 4 5 3 4 5 5 4 2 3 3 1 1 3 2 1 2 6 6 3 5 3 5 6 6 12 18 21 22
4 4 3 4 5 5 6 4 4 4 4 4 4 3 3 3 3 3 3 4 4 5 5 5 6 6 7 8 8 10 11 8 3 0 3 4 8 6 3 3 4 4 3 3 5 4 6 6 5 5 3 3 3 3 3 3 1 2 3 3 4 3 1 4 6 5 4 3 2 1 2 3 2 2 1 1 4 5 2 3 2 4 6 6 7 14 20 21
5 5 4 4 5 6 6 4 4 3 4 4 4 4 3 4 3 3 3 4 5 5 5 6 6 6 7 7 7 8 8 5 1 2 2 3 6 5 3 3 3 4 3 4 6 6 6 5 6 5 4 2 4 4 1 3 1 1 0 3 4 3 1 3 4 4 3 3 2 0 3 3 1 2 3 4 2 3 3 3 2 3 4 5 6 10 15 17
6 6 6 6 5 5 5 4 4 4 4 5 4 4 4 5 4 4 4 4 5 6 6 6 7 7 6 6 5 4 4 1 4 3 2 3 5 5 3 2 3 3 3 5 7 6 4 5 6 4 3 2 2 2 0 3 2 1 1 1 3 3 3 2 2 3 4 3 1 2 2 1 2 2 2 5 2 1 4 4 5 7 6 7 9 11 12 13
7 7 7 7 6 6 6 5 5 5 5 5 5 5 5 5 4 4 5 5 6 6 7 7 7 6 5 4 3 4 4 3 6 5 6 4 5 5 3 2 3 4 4 5 6 5 4 5 4 3 4 3 1 2 1 3 4 3 1 2 1 3 4 3 1 2 4 3 4 1 2 2 1 3 1 3 2 4 5 6 8 9 10 12 12 12 11 12
8 8 8 7 7 7 7 7 6 5 5 5 5 5 5 5 5 5 5 6 7 7 7 7 6 5 3 1 1 4 2 5 6 6 7 5 6 6 4 3 4 4 4 5 5 5 4 4 3 4 3 1 3 2 1 2 4 3 3 2 1 2 6 4 3 4 4 5 3 1 3 4 4 2 1 4 5 4 4 7 8 9 12 13 12 11 11 12
8 8 8 8 7 7 7 7 6 6 6 5 5 5 6 5 5 5 5 6 7 7 7 6 6 3 1 2 5 3 3 4 4 4 5 6 6 6 4 4 4 5 5 4 5 6 3 2 3 3 3 2 3 3 0 0 1 3 4 2 1 3 5 4 5 5 4 4 2 2 5 2 2 1 2 3 4 3 5 8 7 8 11 10 9 10 11 12
8 8 8 8 8 7 7 7 7 7 7 6 6 5 5 5 5 5 5 6 6 6 6 5 4 1 3 3 6 1 4 2 1 3 4 5 6 5 5 4 4 4 6 5 5 6 3 4 5 5 5 2 3 2 1 2 1 2 4 3 4 3 5 3 4 4 2 3 3 4 6 2 2 0 3 2 4 3 6 8 6 8 9 8 8 8 11 13
8 8 8 9 8 7 7 7 8 7 7 7 5 5 5 5 5 5 4 5 5 5 5 3 3 2 4 5 5 3 4 2 2 2 3 4 4 5 5 4 3 4 6 6 6 6 3 7 10 6 2 2 2 1 1 2 2 2 1 3 6 5 5 3 3 4 1 2 4 6 4 2 3 2 2 3 4 3 6 7 7 8 7 7 7 8 11 13
9 7 8 9 9 9 7 7 8 8 8 6 5 5 5 4 5 5 4 5 4 4 4 2 2 4 4 3 4 7 4 3 3 2 2 4 4 5 4 4 4 4 6 5 6 6 4 8 11 6 1 4 3 1 1 2 2 1 2 3 7 7 6 4 3 3 1 0 3 5 1 4 4 2 1 3 2 4 8 7 7 7 5 6 6 7 9 11
10 7 7 8 11 12 8 6 8 7 7 6 5 5 4 4 5 5 4 4 4 3 3 3 4 6 4 0 5 9 8 6 4 3 2 4 4 5 5 5 5 5 4 4 5 6 6 8 9 6 3 5 2 1 3 3 2 1 3 3 5 7 5 4 2 3 2 0 1 1 2 4 0 2 4 5 1 3 8 6 6 5 4 5 5 5 7 11
11 7 6 8 11 13 9 6 7 7 6 5 5 5 4 4 4 4 4 4 4 3 3 3 5 6 4 3 4 5 9 9 7 6 4 5 6 7 6 6 5 4 4 4 6 6 6 8 8 6 3 3 2 2 4 5 3 2 1 2 2 2 4 5 2 3 1 1 2 2 2 4 3 3 6 7 1 4 6 5 5 4 4 4 5 6 6 9
11 8 7 9 12 13 10 7 7 7 6 4 4 4 4 3 4 4 3 3 2 1 2 4 7 6 2 4 5 3 7 7 8 9 7 8 9 8 7 7 7 7 7 7 8 9 9 9 8 5 1 2 3 4 3 4 3 3 1 3 3 1 5 7 3 2 1 1 5 4 2 4 3 2 6 6 3 7 6 3 4 4 5 5 5 6 5 7
10 9 8 9 12 12 9 8 8 6 5 5 4 3 2 2 2 2 1 0 2 3 3 4 7 5 1 3 2 3 5 5 7 9 9 11 9 7 9 10 9 10 10 10 11 10 8 7 4 2 2 2 4 5 3 3 4 3 1 3 3 1 3 6 3 2 1 1 4 3 2 3 2 2 5 5 4 6 6 3 4 4 5 5 5 6 5 6
12 12 9 9 12 10 8 9 8 5 4 3 3 3 2 1 1 1 3 5 6 5 4 4 5 3 1 2 1 3 3 5 7 9 11 10 7 9 12 9 7 9 9 8 8 6 5 5 1 0 2 3 3 4 3 2 4 3 1 2 4 2 2 4 3 3 4 3 1 3 0 5 3 2 4 5 4 5 7 4 4 4 5 5 5 5 6 6
14 12 9 9 11 9 10 11 8 5 2 1 4 3 1 2 2 3 5 6 6 5 3 2 3 1 3 3 3 2 3 6 7 9 10 8 7 11 10 6 6 8 8 5 3 3 3 3 2 1 3 2 2 5 3 5 4 3 2 2 3 2 3 4 3 2 4 4 2 3 2 8 6 3 4 5 4 6 6 3 3 5 5 5 5 5 5 6
13 10 8 9 11 12 12 12 8 5 2 2 3 2 4 3 1 2 4 4 3 2 1 4 4 2 3 3 2 4 6 7 7 7 9 10 10 10 9 7 7 7 5 2 1 1 1 3 3 1 1 3 5 7 8 7 6 6 5 4 3 3 4 4 4 4 1 2 3 5 5 9 9 2 4 4 3 5 4 3 4 4 5 5 5 5 5 5
13 11 10 9 12 15 13 12 8 5 3 3 3 4 4 2 1 2 3 3 5 4 2 5 7 3 1 1 3 7 8 6 4 5 10 11 13 12 7 5 6 5 3 4 2 1 3 3 3 5 6 8 10 9 6 4 5 5 4 4 4 4 5 4 3 4 1 1 4 4 4 7 8 4 3 2 2 5 4 4 4 4 4 4 4 4 5 4
14 14 13 13 15 16 14 13 8 7 3 5 6 3 2 4 2 2 2 4 10 10 5 5 6 3 2 3 8 11 6 2 2 4 11 11 13 11 2 2 5 2 1 3 3 2 4 4 8 8 8 8 8 7 5 4 5 4 4 3 3 4 6 5 2 4 1 2 3 2 1 7 5 2 4 3 3 4 3 3 3 4 4 3 4 4 4 3
15 15 15 16 17 16 13 13 8 9 4 7 8 4 4 2 1 1 1 2 9 13 11 5 3 6 4 3 9 9 3 2 1 2 10 10 7 6 1 3 5 4 1 3 3 2 2 5 11 8 5 5 3 5 6 4 4 2 3 3 3 3 3 4 2 4 2 3 3 3 2 6 2 2 3 3 3 3 2 3 3 3 4 4 3 3 3 3
18 16 15 16 16 14 12 13 8 9 8 10 9 7 4 3 1 0 1 1 5 5 7 6 5 6 5 3 8 9 2 4 4 5 12 11 3 4 5 5 5 5 4 5 6 4 3 6 9 6 8 7 3 4 6 4 3 3 3 3 4 3 1 3 3 3 2 1 2 1 4 4 0 2 3 3 2 3 3 3 3 3 3 3 2 2 3 3
22 20 19 18 16 14 14 11 8 10 13 14 15 15 6 2 1 2 0 1 4 4 4 7 6 6 7 5 10 12 4 4 4 5 14 13 5 3 5 5 5 5 5 8 8 6 6 5 2 6 7 8 4 3 6 5 2 4 5 6 5 4 6 6 2 2 2 3 0 0 4 4 1 1 0 1 1 2 2 3 3 3 2 2 2 2 3 3
23 22 22 22 16 12 13 8 10 14 13 12 18 21 12 3 3 3 1 1 4 4 3 5 4 5 8 7 11 12 3 2 3 5 14 14 7 5 3 3 4 5 7 6 6 5 6 4 4 6 4 6 6 4 6 7 3 3 5 10 10 8 7 5 1 2 3 3 2 1 1 4 2 2 3 2 0 1 2 2 2 1 1 1 2 2 2 2
24 22 23 24 16 12 10 5 11 15 10 12 18 16 12 9 5 3 2 3 4 4 1 4 4 6 9 7 8 7 3 3 3 2 10 11 6 5 3 2 1 4 6 5 3 3 3 1 3 5 5 6 5 4 6 7 5 2 5 9 10 7 6 5 4 3 1 2 2 2 2 3 5 3 2 4 2 1 1 1 0 1 1 1 1 1 1 1
26 24 24 24 20 16 10 4 10 13 7 11 16 13 12 12 9 4 2 3 6 3 4 2 1 6 8 4 5 7 2 4 2 3 4 5 3 3 3 4 2 2 4 4 1 2 3 3 2 4 5 5 5 4 6 8 7 3 3 5 7 7 7 6 6 4 2 2 2 2 3 2 4 3 1 3 3 1 2 2 2 2 1 1 1 1 1 0
29 26 26 26 24 22 15 5 8 14 10 8 9 13 15 13 10 3 2 2 5 3 4 2 1 3 3 2 3 5 1 1 4 1 1 3 2 3 1 6 6 5 3 5 4 3 3 5 5 7 5 4 5 4 8 11 5 4 2 5 6 6 6 5 6 3 1 1 3 3 2 2 4 4 1 2 2 2 5 6 5 4 3 3 2 1 1 0
31 28 29 28 24 23 20 11 8 12 15 10 7 15 17 14 8 3 2 4 2 3 2 1 3 2 2 3 3 3 1 2 2 2 2 3 1 4 2 5 6 7 2 2 5 3 1 4 7 8 5 5 4 1 6 9 4 3 5 7 6 6 5 4 4 3 2 1 4 5 3 3 4 4 1 1 3 5 6 6 5 5 5 4 3 3 2 1
33 30 29 27 23 23 24 19 14 11 10 9 12 19 17 9 4 3 4 5 0 2 1 2 2 1 6 7 1 1 2 2 1 1 2 1 3 5 2 2 6 6 1 4 1 2 1 1 2 4 4 5 4 3 1 3 3 6 6 6 6 6 4 3 2 3 3 2 5 5 3 2 2 5 3 3 3 4 6 5 4 5 5 5 4 4 3 2
35 32 29 29 28 28 23 19 23 16 7 11 17 18 12 3 2 4 7 3 1 1 2 2 1 3 9 9 3 2 3 2 1 3 3 1 3 4 2 2 4 4 2 3 2 3 3 1 2 1 2 5 6 5 3 3 3 5 4 5 4 3 3 3 4 3 1 4 5 3 1 2 3 4 3 3 3 2 5 7 9 9 7 6 5 4 4 3
36 33 31 32 31 31 22 17 27 22 9 16 19 11 6 2 2 8 6 1 0 4 4 3 3 5 8 5 3 4 4 2 2 4 4 3 3 4 3 4 4 3 1 4 2 2 2 3 3 0 1 4 6 5 4 3 2 3 4 5 4 1 3 2 2 1 3 5 3 1 1 2 5 6 4 4 4 3 3 5 9 12 10 9 7 6 4 3
36 33 32 33 33 33 24 17 26 25 16 20 15 4 3 5 9 13 9 3 2 2 4 4 2 5 7 4 3 4 4 2 4 3 2 3 4 4 2 2 6 4 1 4 3 1 2 4 2 3 1 3 7 6 2 1 2 4 5 5 4 2 2 1 3 2 3 3 2 2 1 1 4 5 3 5 4 3 2 2 4 8 10 9 8 6 5 4
35 33 34 35 35 34 27 18 24 27 23 19 10 3 5 9 11 11 10 7 1 2 3 4 5 6 6 4 4 5 3 2 5 5 3 4 4 5 4 3 4 4 4 3 3 4 3 3 4 6 2 4 9 6 5 6 4 3 3 4 4 4 4 4 4 3 3 2 2 3 1 4 4 2 2 2 2 3 2 2 3 4 5 6 5 5 5 5
37 36 35 35 34 33 31 24 23 29 26 14 6 6 10 12 9 6 8 6 2 2 3 3 6 6 4 2 2 5 4 2 4 5 3 5 5 5 5 6 6 4 5 4 2 2 3 5 4 1 0 6 8 4 5 6 3 1 1 4 2 4 4 2 3 5 3 1 2 2 3 4 4 1 2 2 2 2 1 1 3 5 5 6 5 5 6 6
38 38 34 33 33 33 35 29 26 31 25 10 6 10 11 11 5 3 5 5 4 6 6 3 4 4 3 2 2 6 2 2 5 4 2 3 3 5 5 5 8 8 6 5 3 2 2 4 4 2 2 2 4 3 3 3 3 2 2 3 4 3 6 4 1 1 3 1 3 2 3 3 0 1 2 2 2 2 1 1 5 6 6 7 6 7 7 7
36 33 28 29 33 34 36 34 31 31 20 8 10 11 9 7 4 3 4 4 5 9 9 4 4 5 5 4 4 7 3 2 4 4 3 3 3 5 6 4 6 11 10 5 2 3 4 1 3 1 1 1 1 2 4 3 3 5 3 5 3 2 4 3 2 2 3 2 4 1 4 3 2 2 2 1 3 5 4 3 4 6 7 8 8 8 8 8
29 25 19 24 35 35 35 38 33 23 9 5 12 13 7 5 3 2 2 3 5 8 8 7 6 6 7 6 5 7 7 4 5 5 4 4 4 6 9 4 5 12 13 5 1 2 4 1 4 1 2 1 2 3 3 4 2 4 4 3 3 3 1 2 2 1 1 3 4 2 2 3 4 4 3 5 9 9 7 5 6 9 10 10 10 10 10 8
22 14 7 17 32 33 36 41 28 12 4 5 11 12 5 2 2 2 3 2 3 5 7 7 4 3 5 6 5 7 9 7 8 6 4 4 4 5 9 5 4 9 10 7 4 2 3 3 2 2 1 1 2 2 3 2 1 2 1 1 2 2 3 2 2 3 2 2 3 2 1 3 5 6 8 12 13 12 10 8 10 12 12 12 12 11 11 9
12 5 2 14 30 33 38 36 17 5 6 7 8 7 2 1 1 2 3 2 2 3 4 4 4 4 5 5 3 5 7 7 9 7 4 6 4 4 6 4 5 6 4 5 5 1 3 2 3 1 2 2 2 2 6 7 4 2 2 3 1 0 2 1 1 2 3 3 2 3 4 4 4 3 8 10 8 10 13 12 11 11 12 13 12 11 11 9
5 4 3 16 32 36 32 21 8 5 8 8 9 9 5 2 1 1 1 1 1 1 0 2 3 4 4 5 4 5 6 5 7 6 4 6 5 3 6 6 8 8 5 5 4 3 2 2 3 2 1 3 4 3 3 4 4 4 4 5 5 3 3 2 3 1 2 2 3 2 4 5 3 2 4 4 3 7 10 10 10 11 13 13 12 12 11 10
4 5 2 14 34 38 22 7 6 8 8 8 8 8 6 3 2 3 1 0 1 0 1 1 2 2 3 4 3 5 7 5 7 7 4 6 6 3 4 6 9 10 8 5 4 3 3 3 3 3 3 4 4 3 1 1 1 3 2 3 4 3 4 4 6 3 1 1 2 2 3 4 3 2 2 3 3 5 7 8 9 10 12 13 11 10 9 9
4 4 1 10 31 33 15 6 9 9 9 6 3 5 7 4 4 5 3 3 2 2 2 1 2 2 3 2 2 6 8 5 7 7 3 4 5 2 2 6 8 9 6 3 3 2 2 3 3 1 2 1 2 3 2 1 2 2 2 1 4 3 1 2 4 2 3 4 3 2 4 4 2 1 2 2 2 3 6 8 9 8 8 8 9 9 9 9
2 2 2 7 21 22 11 7 10 10 9 6 3 6 5 3 6 8 7 7 4 3 3 2 2 3 2 2 2 5 6 3 5 5 2 4 4 1 1 3 5 6 4 3 5 5 3 3 4 2 0 1 1 0 0 1 1 3 2 2 3 4 3 2 0 2 2 5 7 5 7 4 1 2 2 2 0 2 5 6 7 7 6 7 9 10 9 8
1 2 2 2 8 8 5 4 6 7 9 9 8 9 5 2 4 7 9 8 5 4 4 2 2 3 2 2 2 1 4 2 3 3 1 2 1 3 3 2 1 2 2 2 7 7 4 4 5 5 5 5 4 3 3 2 2 1 1 2 3 5 6 3 1 2 4 3 6 6 6 2 1 2 3 3 1 3 5 5 6 6 7 8 10 10 8 7
1 1 1 1 0 1 1 1 2 3 7 9 8 8 11 9 3 1 7 7 4 5 3 1 3 4 2 3 3 3 4 1 3 3 3 3 1 2 2 2 2 1 1 5 8 6 3 2 5 7 7 7 5 4 3 4 4 3 3 5 6 7 8 6 2 4 4 2 3 7 5 4 5 3 4 5 4 5 5 5 7 7 8 9 8 7 7 7
1 1 2 2 0 1 2 1 2 2 3 5 4 4 11 13 5 1 4 4 4 6 3 1 3 5 5 6 5 4 5 2 2 3 4 3 1 1 2 2 2 2 2 4 4 4 4 3 6 7 8 6 5 4 4 4 3 6 7 8 10 9 10 10 9 8 5 4 8 9 6 7 9 6 7 8 6 6 6 6 8 8 8 7 5 5 7 7
0 0 1 0 1 2 3 3 5 4 2 2 1 1 4 11 10 5 2 1 2 4 3 1 3 6 7 9 7 4 5 5 4 4 3 3 3 1 2 3 2 4 2 2 3 3 5 4 4 6 6 5 3 4 5 5 4 6 8 11 13 11 11 13 14 9 7 7 10 4 6 10 8 5 9 10 7 8 7 6 7 6 5 5 6 7 9 9
1 1 2 2 1 2 2 3 6 6 4 3 1 0 1 6 8 5 2 2 1 1 2 3 3 3 3 4 4 4 6 5 4 4 3 3 4 3 2 1 0 3 3 3 2 1 3 2 3 5 5 4 2 4 5 6 5 4 8 14 14 11 11 12 13 10 9 11 6 3 4 9 6 5 8 8 5 5 4 3 4 4 5 6 7 8 9 9
1 1 1 1 2 1 2 4 6 6 4 3 3 3 2 3 4 1 2 3 2 1 0 3 3 3 2 3 3 3 4 3 4 2 3 4 3 2 2 2 2 2 2 2 0 1 1 1 3 5 2 3 1 4 4 5 6 6 13 17 10 6 8 11 10 7 7 8 5 3 7 10 5 6 7 5 2 3 2 2 4 5 6 7 8 8 8 8
2 1 2 3 2 2 3 4 5 4 3 3 3 4 4 4 5 3 0 0 3 3 3 5 6 4 4 5 5 6 4 4 5 4 5 5 4 3 2 2 4 4 2 2 2 1 2 1 2 4 3 3 1 5 5 3 2 6 18 17 8 8 9 8 7 7 8 8 8 8 10 9 5 5 5 4 3 4 5 5 4 5 5 7 8 8 8 9
3 3 1 3 2 3 3 3 3 3 2 3 4 4 5 5 6 6 2 1 1 2 3 6 7 5 4 7 9 8 6 5 5 4 4 4 3 3 3 3 5 6 5 4 2 1 4 4 2 3 4 1 0 4 5 4 1 7 15 12 13 13 8 3 4 7 9 10 8 9 10 7 4 5 5 6 6 6 6 5 5 5 5 6 7 8 8 8
Wind_Direction
334 299 267 243 237 240 232 231 232 233 230 228 229 236 243 250 271 283 288 299 308 314 322 325 335 340 341 345 344 340 336 331 326 324 324 318 172 164 152 109 113 109 106 150 158 142 67 41 31 32 53 50 15 349 12 18 56 54 81 79 42 182 182 178 180 194 167 302 275 320 51 95 320 317 305 306 14 330 324 311 295 312 299 51 21 11 17 25
325 303 269 251 245 251 244 228 228 230 227 229 233 240 247 255 272 278 282 291 295 303 313 318 332 336 339 344 342 341 336 329 326 334 7 134 162 162 160 131 132 122 109 136 137 108 91 46 26 44 49 45 353 344 23 9 51 80 114 71 259 203 203 193 175 192 194 212 255 295 44 110 235 275 349 327 302 342 348 305 342 338 315 26 14 16 30 38
312 303 264 250 256 258 254 236 232 235 232 236 241 248 251 251 266 278 283 289 295 304 312 317 328 332 337 339 344 346 335 332 339 12 52 117 153 161 165 163 152 129 114 134 130 91 116 138 94 67 47 55 2 351 38 13 20 136 117 81 244 213 229 223 190 200 205 194 261 294 53 82 234 214 355 310 291 330 331 284 344 335 321 11 7 17 29 38
300 304 284 263 266 270 275 261 241 242 244 249 255 260 253 253 266 280 289 296 303 306 308 317 322 328 334 337 349 346 340 354 1 49 69 120 151 157 169 175 158 136 127 136 130 103 112 112 81 70 61 53 338 9 53 345 347 139 117 158 218 187 237 221 199 213 210 195 205 252 356 317 243 177 171 154 307 318 278 271 304 318 341 9 360 16 26 33
274 286 282 270 270 276 284 271 253 254 256 260 266 267 262 266 272 279 291 299 303 304 309 315 316 325 332 339 354 348 359 26 288 211 103 144 160 160 171 172 158 145 135 134 134 117 110 92 66 55 54 51 344 25 42 309 86 123 133 185 188 151 255 235 195 214 187 155 168 243 315 296 164 140 175 163 242 296 337 347 30 32 33 37 18 21 25 29
266 273 272 272 276 279 283 272 266 267 265 266 270 273 275 278 286 291 292 302 307 307 307 308 313 324 332 340 350 1 44 46 245 200 184 197 180 176 175 174 160 152 141 137 136 121 96 59 57 59 48 55 25 58 254 307 47 145 294 262 214 177 231 243 177 208 163 122 211 231 276 316 29 330 192 159 215 324 19 28 66 61 62 60 44 36 29 28
264 272 273 273 273 275 278 270 265 267 268 268 270 277 281 289 299 297 296 306 308 306 305 308 315 320 333 346 348 29 71 252 249 217 232 225 206 203 177 186 176 169 165 143 131 122 96 66 75 128 86 53 173 128 93 349 45 101 248 291 248 181 223 239 155 195 172 202 242 222 338 298 316 297 221 104 52 37 38 49 64 61 58 55 48 40 33 32
263 271 276 276 270 271 273 271 267 262 264 265 270 278 283 294 305 301 299 303 303 303 304 307 311 316 330 8 70 21 7 247 247 231 237 224 214 208 190 207 191 185 177 156 144 142 120 93 136 152 85 13 177 129 97 19 42 105 215 264 120 200 246 267 292 268 231 242 240 119 289 250 205 200 69 53 51 45 47 48 48 53 51 45 42 36 32 32
258 266 275 277 272 271 270 272 269 257 258 260 265 274 282 296 308 309 303 300 302 301 305 308 306 306 281 108 90 18 280 230 238 236 227 214 213 208 213 214 195 196 170 159 157 150 152 157 185 177 142 183 153 122 188 221 312 201 185 222 245 276 291 298 281 270 246 243 148 170 278 284 214 161 79 46 59 59 54 49 37 45 48 43 40 35 33 33
251 265 276 277 273 275 274 272 269 258 256 255 260 271 283 296 303 308 304 301 302 301 307 304 295 269 195 136 93 329 252 184 199 219 206 208 212 210 216 206 194 201 164 154 160 149 160 189 170 146 134 128 139 121 149 156 180 184 163 223 246 289 302 268 252 274 280 253 175 210 276 315 294 40 101 29 36 65 62 49 32 48 50 43 41 37 36 35
250 260 272 282 277 276 279 274 268 260 258 258 261 267 278 295 301 304 303 299 297 301 306 293 276 221 176 138 132 218 234 189 206 184 189 202 202 198 198 197 192 192 168 150 168 166 155 175 150 119 127 144 135 78 250 186 117 115 115 281 289 322 301 272 286 290 296 264 180 182 245 323 351 38 85 354 20 66 75 54 32 45 40 34 39 37 37 34
249 248 263 284 288 285 286 280 273 262 262 259 256 265 277 292 300 299 298 297 297 298 291 274 236 194 154 107 193 223 226 205 205 171 182 189 183 185 179 186 173 170 176 148 172 178 141 161 140 102 166 148 131 56 202 187 99 108 48 331 307 347 330 317 350 302 298 289 171 158 259 346 32 84 360 353 49 69 65 53 29 37 29 29 34 35 39 32
242 237 245 265 282 288 288 282 279 271 264 255 255 269 280 292 299 298 298 298 296 294 276 248 211 178 141 359 232 224 228 222 214 199 186 182 173 167 157 162 153 147 171 140 156 168 155 167 140 106 126 116 134 190 113 61 52 277 39 43 313 352 334 313 6 317 332 124 258 101 291 310 36 210 324 339 268 68 53 41 25 26 22 26 29 33 37 30
229 219 238 264 277 286 289 283 280 272 261 255 264 274 285 295 293 292 296 297 295 279 262 204 185 162 136 248 240 224 230 227 227 225 208 194 167 142 134 136 139 132 138 133 139 147 155 160 125 100 104 86 143 136 51 13 19 317 360 48 358 358 289 296 339 335 10 73 353 87 234 270 216 252 336 342 297 101 73 41 30 22 24 26 25 33 30 28
225 214 237 259 263 275 288 286 276 266 255 257 272 279 289 291 288 299 296 293 306 224 188 162 167 145 93 270 251 225 224 217 215 215 204 189 166 137 128 128 123 117 115 116 120 122 132 137 108 91 106 10 78 93 25 348 14 26 332 309 345 145 272 306 335 7 102 12 19 101 206 282 194 244 341 356 32 94 91 54 42 29 28 32 24 32 26 21
234 226 230 243 254 273 292 288 277 263 247 255 274 277 277 284 285 299 280 221 110 123 123 147 160 140 96 262 228 208 214 202 198 197 185 177 170 144 131 125 114 111 111 106 109 111 106 100 78 76 122 59 78 92 48 359 341 359 73 251 275 200 279 321 340 351 11 59 15 58 209 288 180 221 333 13 50 81 92 63 45 40 33 39 31 31 28 19
237 233 227 240 257 276 299 295 278 251 233 256 297 292 257 239 223 148 123 115 110 100 94 142 148 125 253 214 205 241 207 183 181 180 178 172 169 154 137 117 102 106 104 99 104 96 58 54 60 325 56 66 107 100 67 320 285 311 36 230 250 221 232 311 313 342 18 86 36 22 130 265 228 144 358 14 54 81 87 67 50 52 40 42 37 35 31 24
237 233 222 236 254 268 294 301 283 230 197 340 313 293 185 155 160 145 141 129 102 73 59 141 128 88 260 211 190 208 143 153 161 163 170 159 154 156 140 115 111 106 85 65 65 58 21 28 68 74 33 41 126 115 158 227 215 191 180 198 250 248 223 265 267 287 6 31 347 348 306 268 260 117 42 10 47 83 88 79 63 53 43 43 37 38 33 27
235 235 226 239 252 257 276 296 281 203 133 338 285 132 113 116 148 174 166 147 120 118 206 205 161 153 235 229 160 125 113 130 141 151 153 144 145 141 121 108 107 97 90 86 40 76 79 52 66 143 196 191 183 177 197 206 174 171 175 156 188 233 243 238 243 261 323 23 283 269 261 267 271 316 41 9 39 77 84 69 58 47 43 41 36 35 31 33
230 233 232 241 248 249 263 287 275 185 136 286 235 125 118 120 41 279 218 202 216 197 174 196 189 177 236 248 138 128 119 117 122 151 151 149 143 125 93 77 73 64 109 153 165 126 109 126 190 216 203 194 199 197 189 156 132 136 140 144 186 219 263 252 246 290 326 147 261 247 247 266 271 309 3 340 31 59 54 53 51 44 45 37 38 33 23 29
228 231 235 244 247 241 249 278 261 171 163 255 215 161 183 170 138 262 230 244 244 232 237 220 206 248 262 160 156 150 130 88 39 142 156 158 146 135 98 56 98 93 228 163 143 66 91 168 222 226 198 188 196 188 158 122 119 119 153 186 232 219 251 256 233 309 345 185 267 41 296 269 267 339 353 356 51 44 19 55 57 43 51 38 37 30 16 11
231 232 235 239 241 234 243 273 239 170 191 239 217 225 262 222 173 249 174 279 263 235 231 233 239 268 255 167 173 166 118 100 93 190 169 157 151 169 161 93 141 176 203 139 121 72 99 218 237 226 160 128 116 154 163 172 161 153 153 170 253 227 254 283 287 336 13 179 256 22 321 266 269 33 16 30 65 62 26 63 64 53 62 44 38 28 14 12
234 233 230 230 233 234 254 270 221 179 213 221 212 222 261 319 280 285 130 261 291 244 212 207 212 231 223 222 194 174 161 172 176 222 184 158 150 189 145 133 161 145 149 182 164 154 184 244 244 195 138 125 99 126 138 143 173 190 167 171 239 211 180 272 283 326 15 114 240 334 309 276 152 46 30 43 82 92 59 65 62 62 71 56 59 47 25 24
236 233 231 227 225 235 258 261 206 207 231 226 229 225 220 354 221 218 339 268 281 270 220 202 195 200 201 207 185 175 196 197 172 203 184 164 139 153 160 156 143 136 188 200 180 184 218 243 205 128 141 161 159 140 141 153 217 230 204 203 225 203 203 231 264 315 2 27 8 118 317 301 204 210 283 33 85 83 41 59 58 40 61 66 74 61 39 35
235 235 237 227 219 236 252 239 207 225 229 223 237 231 217 228 217 213 329 357 280 286 279 206 192 206 191 162 167 172 169 221 222 199 178 171 149 138 180 151 137 188 196 174 171 218 248 231 130 110 135 167 161 175 183 178 200 272 227 211 217 212 210 218 54 31 22 352 323 86 318 294 301 252 200 193 150 42 13 47 57 12 37 61 68 56 34 34
231 233 234 222 222 236 232 217 217 220 215 223 237 230 211 209 202 196 111 34 280 260 175 191 182 184 175 149 158 146 82 251 251 128 162 176 165 125 148 139 81 202 175 142 164 222 245 204 138 141 146 155 168 221 220 172 148 271 242 205 207 199 180 173 139 112 132 242 300 63 161 251 312 312 189 167 137 61 336 19 306 280 39 83 102 70 36 27
232 230 226 220 228 226 205 200 210 194 192 239 237 219 204 198 188 193 97 8 277 193 128 215 187 158 167 167 158 137 169 236 102 79 142 168 181 91 138 175 126 194 166 128 209 245 174 136 118 149 140 148 179 233 217 159 138 235 245 155 162 170 172 171 154 159 209 234 327 7 136 199 290 292 201 147 133 98 244 233 247 235 212 199 172 110 103 49
230 226 222 222 229 224 207 193 189 185 200 236 218 196 194 189 183 169 97 257 277 102 111 244 80 107 133 95 91 116 205 211 115 214 349 95 167 58 144 198 165 169 163 148 213 267 147 163 181 162 142 176 202 225 187 159 154 242 201 120 134 149 156 146 136 162 235 53 301 296 147 186 263 269 334 128 167 232 226 214 212 208 209 202 189 180 155 230
228 222 221 222 226 225 212 202 190 196 215 226 197 182 178 177 176 85 85 221 264 80 98 144 116 59 84 96 50 66 54 31 122 229 10 83 104 61 153 199 145 139 114 135 206 252 113 198 192 153 153 199 206 278 182 168 185 193 126 96 80 75 83 94 114 124 70 85 240 243 188 189 268 275 271 136 225 234 212 202 199 197 204 202 192 183 176 196
226 220 220 216 214 210 203 210 216 202 209 211 184 170 161 159 148 109 204 224 156 108 112 112 148 131 128 131 11 354 80 41 105 75 46 94 34 38 110 143 97 119 57 16 214 238 314 287 186 145 168 185 142 60 108 145 146 143 114 78 60 43 43 49 62 91 73 273 246 238 212 179 260 273 232 187 222 201 169 166 181 195 205 205 201 187 183 186
223 219 216 208 204 197 191 209 211 195 187 182 166 155 148 112 77 174 215 233 50 152 126 124 195 147 150 151 169 187 104 55 168 114 113 140 62 52 98 116 80 78 16 338 296 299 346 350 247 195 149 129 102 65 40 58 101 114 97 94 90 14 12 26 359 45 120 251 257 267 250 165 205 261 245 215 234 180 162 168 174 187 199 199 198 191 190 192
220 218 213 207 204 196 192 204 198 189 180 169 157 144 148 128 202 212 220 76 166 205 154 160 196 172 173 152 119 156 130 107 174 129 133 145 146 166 172 172 154 86 312 232 231 329 296 228 237 166 156 137 114 83 40 23 42 90 99 112 113 2 11 4 305 278 218 246 272 286 180 171 229 249 232 202 212 215 205 185 176 182 187 188 192 189 187 189
217 217 212 207 203 198 197 196 190 186 173 161 154 129 155 189 218 215 210 192 214 206 126 119 126 147 158 135 134 164 123 137 176 145 135 123 149 205 245 193 159 125 180 195 170 185 269 276 200 145 224 183 149 142 136 175 183 163 152 139 137 112 83 254 262 271 257 251 291 296 202 183 264 266 224 186 203 226 227 224 199 187 183 183 183 179 182 190
214 214 210 206 203 201 197 186 186 184 168 154 152 143 175 216 224 202 198 210 230 47 83 105 104 117 147 159 202 181 125 182 178 136 127 126 144 205 234 234 185 115 103 144 169 177 195 273 199 170 197 183 175 174 154 148 154 185 175 134 146 154 158 211 217 210 238 254 303 305 238 185 205 262 260 218 267 288 253 239 228 207 187 169 162 167 182 194
211 207 206 203 201 202 196 187 186 181 168 152 155 175 195 221 225 188 188 196 169 78 53 78 106 120 175 227 260 203 168 199 172 131 149 165 171 196 193 204 200 158 133 161 207 164 171 263 246 212 289 167 177 185 123 117 128 222 132 108 162 186 151 156 187 173 172 262 279 246 231 221 189 217 301 314 306 303 295 232 197 200 180 151 161 182 191 201
201 196 200 197 196 200 196 193 189 180 170 156 171 193 211 219 205 172 183 161 154 144 112 88 96 115 193 223 246 225 207 131 155 152 188 193 209 204 186 205 197 183 171 164 184 152 136 278 289 18 16 145 174 185 114 119 168 153 132 174 219 183 118 114 205 101 86 229 254 190 219 276 304 253 302 9 315 281 294 224 189 185 171 163 184 196 198 205
186 186 194 194 196 199 196 195 191 182 175 172 191 202 217 216 183 166 180 132 138 142 133 173 191 151 180 193 198 207 192 123 159 170 186 196 225 193 188 237 194 188 199 172 177 193 150 253 299 76 121 290 246 134 68 28 128 124 179 210 196 120 92 108 189 14 52 234 266 205 203 224 160 224 302 46 258 243 220 206 186 178 177 184 196 200 204 206
179 185 196 197 198 196 193 193 190 184 184 195 203 212 211 199 186 141 143 129 134 146 160 198 199 170 182 190 189 187 180 177 174 176 179 194 242 187 172 206 192 194 205 173 134 227 142 166 300 8 145 304 8 102 75 3 75 128 195 195 113 140 162 100 163 195 198 233 282 282 224 218 192 201 199 197 219 218 199 189 192 191 189 193 200 203 206 203
174 183 207 198 197 196 190 189 186 180 208 213 209 219 206 173 210 156 151 153 139 165 190 201 191 168 181 178 166 172 182 182 168 174 186 184 229 198 170 179 185 200 208 171 162 215 131 162 261 324 245 192 38 102 165 216 324 58 85 99 69 150 168 153 163 167 183 215 278 293 271 239 225 200 183 197 206 193 179 187 200 199 195 196 198 199 201 198
167 183 223 180 190 194 185 183 185 182 208 212 212 223 206 97 248 204 204 202 154 193 207 199 185 174 175 177 165 169 182 180 171 181 202 182 189 211 195 177 149 174 192 161 169 177 98 160 211 302 318 165 166 214 187 183 179 118 128 167 186 105 123 192 224 122 136 175 210 279 283 255 245 202 185 201 207 187 181 186 194 198 199 201 201 199 197 194
161 214 191 165 179 183 176 176 197 205 210 216 216 225 221 187 180 186 252 287 110 230 193 148 190 191 173 175 183 178 166 167 178 184 208 193 179 197 202 174 150 151 136 138 180 196 146 153 167 163 172 185 225 260 194 183 179 158 176 190 186 172 132 176 252 190 110 182 182 212 274 264 247 202 184 197 206 192 187 184 188 196 199 202 205 202 197 195
177 210 185 163 173 173 167 184 206 195 222 223 208 213 194 155 192 191 177 53 76 118 123 131 180 197 191 185 183 172 156 158 189 187 199 197 182 189 192 158 151 151 136 139 182 183 142 114 123 166 206 213 252 310 62 206 160 131 189 199 177 183 143 170 227 220 134 224 142 120 276 276 264 224 200 215 205 185 186 186 192 202 202 202 205 201 201 205
192 191 94 160 171 170 168 214 197 192 225 218 171 193 187 177 201 188 181 201 184 151 167 185 182 183 200 191 153 168 162 164 188 183 182 188 183 206 192 158 155 149 133 138 158 153 136 109 114 223 302 327 316 343 39 38 87 142 227 168 158 200 162 169 215 162 162 203 135 100 264 266 274 258 230 241 213 179 194 196 195 204 206 202 203 204 206 207
174 153 44 166 178 179 182 202 198 199 211 203 189 201 197 191 187 185 199 202 183 154 166 184 196 183 182 156 148 188 186 177 185 182 161 175 179 11 41 176 174 159 157 171 163 165 180 150 133 144 161 3 346 278 189 313 232 209 216 164 182 188 119 63 50 112 213 201 155 183 241 230 223 304 311 319 123 204 218 205 196 202 202 199 204 208 206 195
136 113 23 173 186 195 201 194 193 197 201 209 216 206 199 229 204 195 201 196 179 172 176 191 180 143 129 124 86 226 220 166 159 177 131 147 171 10 13 330 274 194 221 161 145 150 157 161 159 165 192 212 206 191 199 199 187 195 178 177 210 189 160 152 140 180 238 197 151 202 240 234 316 306 293 293 292 247 231 203 205 213 206 206 209 206 198 185
180 144 115 161 214 226 210 87 131 175 197 207 214 209 205 215 243 196 195 197 191 178 170 190 159 129 132 164 142 211 224 93 79 136 145 148 191 333 358 13 21 301 11 94 119 129 117 167 189 189 205 207 188 187 179 128 127 162 188 188 195 195 181 164 142 205 211 149 199 231 234 259 267 238 236 249 231 232 229 194 204 218 215 217 214 199 190 186
206 159 151 154 145 184 166 153 157 154 185 197 202 216 207 206 206 108 191 200 182 170 161 48 165 169 187 186 183 208 209 163 108 144 157 157 163 328 354 47 43 336 6 82 84 95 113 201 207 197 217 209 158 155 165 142 167 197 204 210 208 198 182 182 206 213 156 142 247 241 195 226 243 200 201 229 217 221 233 207 209 219 217 213 197 181 186 188
103 64 210 149 108 180 179 173 172 149 97 149 180 351 214 203 194 178 178 170 153 171 184 259 202 194 190 186 186 188 185 189 184 166 152 140 139 105 21 40 19 339 1 51 12 85 132 210 202 178 228 237 140 142 166 165 201 208 209 224 223 207 187 198 220 214 163 203 252 244 170 216 233 188 201 218 204 206 220 210 206 210 203 191 178 184 195 194
99 69 325 344 60 154 151 132 154 158 132 111 138 84 222 200 190 176 123 93 55 272 192 185 200 188 163 159 157 169 186 191 189 184 164 144 153 146 112 106 19 351 36 72 4 68 137 206 166 156 233 259 145 148 163 172 201 216 222 230 228 217 202 211 228 220 203 228 245 99 165 234 230 179 205 219 199 193 204 180 170 180 185 186 189 198 202 199
124 147 145 38 59 112 115 125 145 158 151 139 171 186 165 173 175 143 57 107 128 306 101 145 167 160 121 105 125 188 202 138 111 148 143 134 158 159 148 165 136 64 48 93 126 306 165 180 121 127 209 283 111 134 159 192 201 221 242 238 218 191 208 220 229 217 210 239 240 185 231 251 231 180 204 226 179 160 188 176 175 196 195 185 193 204 203 202
86 75 134 119 127 159 154 148 147 150 163 172 182 172 163 177 171 149 64 133 151 172 182 170 169 173 186 191 195 213 211 128 121 162 159 151 177 183 171 165 132 128 126 126 147 173 163 156 69 106 183 252 183 162 171 171 165 247 254 244 184 167 209 213 206 196 189 207 226 229 240 248 229 186 196 218 189 186 214 204 190 211 204 187 196 203 203 204
97 36 54 101 129 167 154 146 154 160 182 181 172 163 162 174 169 155 150 339 81 145 187 177 164 159 184 202 211 217 204 166 152 170 162 140 139 137 142 149 138 145 164 162 145 144 152 150 118 143 183 235 140 162 152 110 86 258 255 230 184 192 204 159 181 209 198 192 201 223 235 231 183 163 185 218 215 211 224 214 200 212 204 196 205 205 207 210